Tomahawk, WI

4:09 AM CST on February 25, 2018 (GMT -0600)
Tomahawk

Weather History for KTKV - February, 2013

Change the Weather History Date:

Saturday, February 16, 2013

  Actual Average (KRHI) Record (KRHI)
Temperature  
Mean Temperature -1 °F -  
Max Temperature 14 °F 25 °F 60 °F (1931)
Min Temperature -16 °F 2 °F -41 °F (1936)
Degree Days  
Heating Degree Days 66    
Moisture  
Dew Point -10 °F    
Average Humidity 74    
Maximum Humidity 92    
Minimum Humidity 45    
Precipitation  
Precipitation 0.00 in - - ()
Sea Level Pressure  
Sea Level Pressure 30.08 in    
Wind  
Wind Speed 2 mph (WNW)    
Max Wind Speed 8 mph    
Max Gust Speed -    
Visibility 10 miles    
Events      
Averages and records for this station are not official NWS values.
T = Trace of Precipitation, MM = Missing Value Source: NWS Daily Summary

Daily Weather History Graph

Daily Weather History Graph

Search for Another Location

Airport or City:

Trip Planner

Search our weather history database for the weather conditions in past years. The results will help you decide how hot, cold, wet, or windy it might be!

Date:

Astronomy

Feb. 16, 2013 Rise Set
Actual Time 6:58 AM CST 5:28 PM CST
Civil Twilight 6:28 AM CST 5:58 PM CST
Nautical Twilight 5:54 AM CST 6:33 PM CST
Astronomical Twilight 5:19 AM CST 7:07 PM CST
Moon 9:50 AM CST (2/16) No Moon Set
Length of Visible Light 11h 30m
Length of Day
10h 29m
Waxing Crescent, 39% of the Moon is Illuminated
Feb 16
Waxing Crescent
Feb 17
First Quarter
Feb 25
Full
Mar 4
Last Quarter
Mar 11
New

Hourly Weather History & Observations

Time (CST) Temp. Windchill Dew Point Humidity Pressure Visibility Wind Dir Wind Speed Gust Speed Precip Events Conditions
12:15 AM -0.4 °F - -5.8 °F 78% 30.10 in 10.0 mi Calm Calm - N/A   Clear
12:35 AM -4.0 °F -12.4 °F -7.6 °F 85% 30.10 in 10.0 mi West 3.5 mph - N/A   Clear
12:55 AM -4.0 °F -14.6 °F -7.6 °F 85% 30.10 in 10.0 mi West 4.6 mph - N/A   Clear
1:15 AM -2.2 °F -10.4 °F -5.8 °F 85% 30.09 in 10.0 mi West 3.5 mph - N/A   Clear
1:35 AM -5.8 °F -14.5 °F -9.4 °F 84% 30.09 in 10.0 mi West 3.5 mph - N/A   Clear
1:55 AM -5.8 °F -14.5 °F -11.2 °F 77% 30.09 in 10.0 mi West 3.5 mph - N/A   Clear
2:15 AM -7.6 °F -16.5 °F -13.0 °F 77% 30.08 in 10.0 mi West 3.5 mph - N/A   Clear
2:35 AM -7.6 °F -16.5 °F -13.0 °F 77% 30.08 in 10.0 mi West 3.5 mph - N/A   Clear
2:55 AM -9.4 °F - -14.8 °F 77% 30.07 in 10.0 mi Calm Calm - N/A   Scattered Clouds
3:15 AM -11.2 °F -20.6 °F -14.8 °F 84% 30.07 in 10.0 mi West 3.5 mph - N/A   Scattered Clouds
3:35 AM -13.0 °F - -16.6 °F 84% 30.07 in 10.0 mi Calm Calm - N/A   Scattered Clouds
3:55 AM -11.2 °F -20.6 °F -16.6 °F 77% 30.07 in 10.0 mi West 3.5 mph - N/A   Mostly Cloudy
4:15 AM -13.0 °F -22.7 °F -16.6 °F 84% 30.07 in 10.0 mi West 3.5 mph - N/A   Mostly Cloudy
4:35 AM -9.4 °F -18.6 °F -14.8 °F 77% 30.07 in 10.0 mi West 3.5 mph - N/A   Scattered Clouds
4:55 AM -14.8 °F -24.8 °F -18.4 °F 84% 30.07 in 10.0 mi West 3.5 mph - N/A   Clear
5:15 AM -11.2 °F - -16.6 °F 77% 30.07 in 10.0 mi Calm Calm - N/A   Clear
5:35 AM -11.2 °F - -14.8 °F 84% 30.07 in 10.0 mi Calm Calm - N/A   Clear
5:55 AM -13.0 °F - -18.4 °F 77% 30.07 in 10.0 mi Calm Calm - N/A   Clear
6:15 AM -14.8 °F - -18.4 °F 84% 30.07 in 10.0 mi Calm Calm - N/A   Clear
6:35 AM -16.6 °F - -22.0 °F 76% 30.07 in 10.0 mi Calm Calm - N/A   Clear
6:55 AM -16.6 °F - -22.0 °F 76% 30.08 in 10.0 mi Calm Calm - N/A   Clear
7:15 AM -14.8 °F - -20.2 °F 77% 30.08 in 10.0 mi Calm Calm - N/A   Clear
7:35 AM -16.6 °F - -23.8 °F 70% 30.08 in 10.0 mi Calm Calm - N/A   Clear
7:55 AM -11.2 °F -20.6 °F -14.8 °F 84% 30.09 in 10.0 mi West 3.5 mph - N/A   Clear
8:15 AM -5.8 °F - -9.4 °F 84% 30.09 in 10.0 mi Calm Calm - N/A   Clear
8:35 AM -2.2 °F -10.4 °F -5.8 °F 85% 30.09 in 10.0 mi WNW 3.5 mph - N/A   Clear
8:55 AM 1.4 °F -6.2 °F -4.0 °F 78% 30.09 in 10.0 mi WNW 3.5 mph - N/A   Scattered Clouds
9:15 AM 3.2 °F -6.2 °F -0.4 °F 85% 30.09 in 10.0 mi NW 4.6 mph - N/A   Mostly Cloudy
9:35 AM 3.2 °F -7.8 °F 1.4 °F 92% 30.09 in 10.0 mi WNW 5.8 mph - N/A   Scattered Clouds
12:15 PM 12.2 °F 1.7 °F -0.4 °F 57% 30.07 in 10.0 mi NW 6.9 mph - N/A   Overcast
12:35 PM 14.0 °F 2.9 °F -2.2 °F 49% 30.07 in 10.0 mi NNW 8.1 mph - N/A   Overcast
12:55 PM 12.2 °F 4.3 °F -2.2 °F 53% 30.07 in 10.0 mi North 4.6 mph - N/A   Overcast
1:15 PM 12.2 °F 2.9 °F -2.2 °F 53% 30.06 in 10.0 mi North 5.8 mph - N/A   Overcast
1:35 PM 12.2 °F 1.7 °F -2.2 °F 53% 30.06 in 10.0 mi NNW 6.9 mph - N/A   Overcast
1:55 PM 14.0 °F 2.9 °F -0.4 °F 53% 30.06 in 10.0 mi NNE 8.1 mph - N/A   Overcast
2:15 PM 14.0 °F 5.1 °F -4.0 °F 45% 30.06 in 10.0 mi NNW 5.8 mph - N/A   Overcast
2:35 PM 12.2 °F 0.7 °F -4.0 °F 48% 30.06 in 10.0 mi WNW 8.1 mph - N/A   Overcast
2:55 PM 14.0 °F 6.5 °F -2.2 °F 49% 30.06 in 10.0 mi NNE 4.6 mph - N/A   Overcast
3:15 PM 12.2 °F 1.7 °F -2.2 °F 53% 30.07 in 10.0 mi NNW 6.9 mph - N/A   Overcast
3:35 PM 12.2 °F 2.9 °F -2.2 °F 53% 30.07 in 10.0 mi NW 5.8 mph - N/A   Mostly Cloudy
3:55 PM 12.2 °F 1.7 °F -0.4 °F 57% 30.07 in 10.0 mi WNW 6.9 mph - N/A   Overcast
4:15 PM 12.2 °F 6.1 °F -0.4 °F 57% 30.07 in 10.0 mi WNW 3.5 mph - N/A   Overcast
4:35 PM 14.0 °F - -0.4 °F 53% 30.07 in 10.0 mi Calm Calm - N/A   Overcast
4:55 PM 12.2 °F 4.3 °F -0.4 °F 57% 30.07 in 10.0 mi North 4.6 mph - N/A   Mostly Cloudy
5:15 PM 10.4 °F - -0.4 °F 62% 30.08 in 10.0 mi Calm Calm - N/A   Scattered Clouds
5:35 PM 8.6 °F - -0.4 °F 67% 30.08 in 10.0 mi Calm Calm - N/A   Clear
5:55 PM 6.8 °F - -2.2 °F 67% 30.09 in 10.0 mi Calm Calm - N/A   Clear
6:15 PM 3.2 °F - -4.0 °F 72% 30.09 in 10.0 mi Calm Calm - N/A   Clear
6:35 PM 1.4 °F - -4.0 °F 78% 30.09 in 10.0 mi Calm Calm - N/A   Clear
6:55 PM -0.4 °F - -5.8 °F 78% 30.09 in 10.0 mi Calm Calm - N/A   Clear
7:15 PM -2.2 °F - -5.8 °F 85% 30.09 in 10.0 mi Calm Calm - N/A   Clear
7:35 PM -4.0 °F - -7.6 °F 85% 30.09 in 10.0 mi Calm Calm - N/A   Clear
7:55 PM -5.8 °F - -7.6 °F 92% 30.08 in 10.0 mi Calm Calm - N/A   Clear
8:15 PM -5.8 °F - -9.4 °F 84% 30.09 in 10.0 mi Calm Calm - N/A   Clear
8:35 PM -7.6 °F - -9.4 °F 92% 30.09 in 10.0 mi Calm Calm - N/A   Clear
8:55 PM -9.4 °F - -14.8 °F 77% 30.10 in 10.0 mi Calm Calm - N/A   Clear
9:15 PM -11.2 °F - -14.8 °F 84% 30.10 in 10.0 mi Calm Calm - N/A   Clear
9:35 PM -11.2 °F - -14.8 °F 84% 30.10 in 10.0 mi Calm Calm - N/A   Clear
9:55 PM -11.2 °F - -16.6 °F 77% 30.10 in 10.0 mi Calm Calm - N/A   Clear
10:15 PM -13.0 °F - -16.6 °F 84% 30.10 in 10.0 mi Calm Calm - N/A   Clear
10:35 PM -14.8 °F - -18.4 °F 84% 30.10 in 10.0 mi Calm Calm - N/A   Clear
10:55 PM -13.0 °F - -18.4 °F 77% 30.09 in 10.0 mi Calm Calm - N/A   Clear
11:15 PM -14.8 °F - -18.4 °F 84% 30.09 in 10.0 mi Calm Calm - N/A   Clear
11:35 PM -14.8 °F - -18.4 °F 84% 30.08 in 10.0 mi Calm Calm - N/A   Clear
11:55 PM -14.8 °F - -18.4 °F 84% 30.08 in 10.0 mi Calm Calm - N/A   Clear